Powrót do katalogu

STARLINK-6037

AktywnyŁącznośćVLEO
NORAD 56461·PAYLOAD·🇺🇸 United States

Wystrzelony May 10, 2023 z Vandenberg Space Force Base

Loading…

Następne Przeloty (najbliższe 24 godziny)

TLE

ŚwieżeSource: CelesTrak SupGP

Epoka: Sep 15, 2026, 01:44 UTC

1 56461C 23064P   26258.07270833 -.00023893  00000+0 -20026-2 0  2586
2 56461  70.0031  26.7954 0003049 270.2092 236.2076 14.98336938    17

Śledź STARLINK-6037 w czasie rzeczywistym z AllMySat

Download on the App Store